Location: Hylvaty SDH
(49.9612°N, 16.4057°E)
Time: 09:31:21
(UTC+01:00)

A-11 Canister half - Visible Passes

Search period start: 23 January 2020 00:00
Search period end: 02 February 2020 00:00
Orbit: 1517 x 1683 km, 47.2° (Epoch: 22 January)

Date Brightness Start Highest point End Pass type
(mag) Time Alt. Az. Time Alt. Az. Time Alt. Az.
23 Jan 9.8 02:49:37 40° E 02:49:37 40° E 02:55:01 10° E visible
23 Jan 9.0 04:47:49 49° WSW 04:50:17 64° SSW 04:59:27 10° ESE visible
23 Jan 9.9 06:46:15 10° W 06:53:59 31° SW 07:01:50 10° SSE visible
24 Jan 10.2 02:27:59 31° E 02:27:59 31° E 02:32:07 10° E visible
24 Jan 8.8 04:26:10 60° SW 04:27:24 65° SSW 04:36:35 10° ESE visible
24 Jan 9.8 06:24:22 14° W 06:31:10 33° SW 06:39:09 10° SSE visible
25 Jan 10.5 02:06:21 23° E 02:06:21 23° E 02:09:12 10° E visible
25 Jan 8.8 04:04:33 67° SSW 04:04:33 67° SSW 04:13:43 10° ESE visible
25 Jan 9.7 06:02:45 19° W 06:08:21 34° SW 06:16:28 10° SSE visible
26 Jan 10.8 01:44:46 16° E 01:44:46 16° E 01:46:18 10° E visible
26 Jan 9.0 03:42:59 61° SSE 03:42:59 61° SSE 03:50:51 10° ESE visible
26 Jan 9.6 05:41:11 24° W 05:45:32 36° SW 05:53:44 10° SSE visible
27 Jan 11.1 01:23:13 11° E 01:23:13 11° E 01:23:25 10° E visible
27 Jan 9.4 03:21:26 50° SE 03:21:26 50° SE 03:27:58 10° ESE visible
27 Jan 9.5 05:19:38 30° WSW 05:22:43 38° SW 05:31:01 10° SSE visible
28 Jan 9.8 02:59:56 38° ESE 02:59:56 38° ESE 03:05:06 10° ESE visible
28 Jan 9.4 04:58:08 37° WSW 04:59:53 40° SW 05:08:17 10° SSE visible
28 Jan 10.5 06:59:26 10° WSW 07:02:38 12° SW 07:05:51 10° SW visible
29 Jan 10.2 02:38:28 28° ESE 02:38:28 28° ESE 02:42:13 10° ESE visible
29 Jan 9.3 04:36:41 41° SW 04:37:03 41° SW 04:45:32 10° SSE visible
29 Jan 10.5 06:35:59 10° W 06:39:53 13° SW 06:43:48 10° SSW visible
30 Jan 10.6 02:17:04 20° ESE 02:17:04 20° ESE 02:19:20 10° ESE visible
30 Jan 9.4 04:15:17 42° SSW 04:15:17 42° SSW 04:22:47 10° SSE visible
30 Jan 10.4 06:13:30 11° WSW 06:17:06 15° SW 06:21:36 10° SSW visible
31 Jan 11.0 01:55:43 13° ESE 01:55:43 13° ESE 01:56:27 10° ESE visible
31 Jan 9.6 03:53:56 38° S 03:53:56 38° S 04:00:01 10° SE visible
31 Jan 10.2 05:52:10 15° WSW 05:54:20 16° SW 05:59:19 10° SSW visible
31 Jan 11.0 21:07:26 10° SSW 21:07:31 10° SSW 21:07:31 10° SSW visible
01 Feb 9.9 03:32:39 30° SSE 03:32:39 30° SSE 03:37:14 10° SE visible
01 Feb 10.2 05:30:53 17° WSW 05:31:34 17° SW 05:36:58 10° SSW visible
01 Feb 10.6 20:44:42 10° SSW 20:46:31 16° SSW 20:46:31 16° SSW visible
